Del Rio Laughlin AFB, TX

9:42 PM CDT on September 20, 2017 (GMT -0500)
Laughlin Air Force Base

Weather History for KDLF - May, 2013

Change the Weather History Date:

Friday, May 24, 2013

  Actual Average Record
Temperature  
Mean Temperature 76 °F -  
Max Temperature 84 °F 93 °F 111 °F (2000)
Min Temperature 68 °F 71 °F 52 °F (2017)
Cooling Degree Days 11    
Growing Degree Days 26 (Base 50)    
Moisture  
Dew Point 66 °F    
Average Humidity 82    
Maximum Humidity 94    
Minimum Humidity 61    
Precipitation  
Precipitation 0.32 in - - ()
Sea Level Pressure  
Sea Level Pressure 30.00 in    
Wind  
Wind Speed 17 mph (ESE)    
Max Wind Speed 38 mph    
Max Gust Speed 44 mph    
Visibility 8 miles    
Events Rain , Thunderstorm    
Averages and records for this station are not official NWS values.
T = Trace of Precipitation, MM = Missing Value Source: NWS Daily Summary

Daily Weather History Graph

Daily Weather History Graph

Search for Another Location

Airport or City:

Trip Planner

Search our weather history database for the weather conditions in past years. The results will help you decide how hot, cold, wet, or windy it might be!

Date:

Astronomy

May. 24, 2013 Rise Set
Actual Time 6:46 AM CDT 8:33 PM CDT
Civil Twilight 6:19 AM CDT 9:00 PM CDT
Nautical Twilight 5:47 AM CDT 9:32 PM CDT
Astronomical Twilight 5:14 AM CDT 10:06 PM CDT
Moon 8:20 PM CDT (5/24) 6:16 AM CDT (5/24)
Length of Visible Light 14h 40m
Length of Day
13h 47m
Full, 100% of the Moon is Illuminated
May 24
Full
May 24
Full
May 31
Last Quarter
Jun 8
New
Jun 16
First Quarter

Hourly Weather History & Observations

Time (CDT) Temp. Heat Index Dew Point Humidity Pressure Visibility Wind Dir Wind Speed Gust Speed Precip Events Conditions
12:58 AM 84.7 °F 89.7 °F 71.1 °F 63% 29.91 in 10.0 mi SE 18.4 mph - N/A   Mostly Cloudy
1:58 AM 82.0 °F 86.5 °F 71.4 °F 70% 29.92 in 10.0 mi SE 13.8 mph - N/A   Scattered Clouds
2:58 AM 80.2 °F 84.0 °F 71.6 °F 75% 29.92 in 10.0 mi SSE 18.4 mph 23.0 mph N/A   Mostly Cloudy
3:43 AM 78.8 °F - 71.6 °F 78% 29.96 in 10.0 mi SE 17.3 mph - N/A   Overcast
3:49 AM 78.8 °F - 71.6 °F 78% 29.94 in 10.0 mi SE 21.9 mph - N/A Thunderstorm Thunderstorm
3:58 AM 79.0 °F - 71.2 °F 77% 29.90 in 10.0 mi SE 21.9 mph - N/A Thunderstorm Thunderstorm
4:12 AM 78.8 °F - 71.6 °F 78% 29.95 in 10.0 mi SE 18.4 mph - N/A Thunderstorm Mostly Cloudy
4:20 AM 78.8 °F - 71.6 °F 78% 29.97 in 10.0 mi SE 16.1 mph - N/A Thunderstorm Thunderstorm
4:33 AM 78.8 °F - 71.6 °F 78% 30.00 in 10.0 mi East 16.1 mph - N/A Thunderstorm Thunderstorm
4:45 AM 75.2 °F - 64.4 °F 69% 30.01 in 10.0 mi ENE 23.0 mph 32.2 mph N/A Rain , Thunderstorm Light Thunderstorms and Rain
4:55 AM 71.6 °F - 66.2 °F 83% 30.06 in 4.0 mi ENE 23.0 mph 32.2 mph N/A Rain , Thunderstorm Heavy Thunderstorms and Rain
4:58 AM 69.8 °F - 66.2 °F 88% 30.02 in 3.0 mi ENE 24.2 mph 28.8 mph 0.04 in Rain , Thunderstorm Heavy Thunderstorms and Rain
5:02 AM 69.8 °F - 66.2 °F 88% 30.06 in 2.5 mi NNE 20.7 mph 29.9 mph N/A Rain , Thunderstorm Heavy Thunderstorms and Rain
5:07 AM 68.0 °F - 66.2 °F 94% 30.04 in 3.0 mi North 24.2 mph 29.9 mph N/A Rain , Thunderstorm Heavy Thunderstorms and Rain
5:10 AM 68.0 °F - 66.2 °F 94% 30.02 in 2.5 mi NNE 26.5 mph 33.4 mph N/A Rain , Thunderstorm Heavy Rain
5:15 AM 68.0 °F - 66.2 °F 94% 29.97 in 1.8 mi NE 38.0 mph 43.7 mph N/A Rain , Thunderstorm Heavy Rain
5:30 AM 68.0 °F - 66.2 °F 94% 29.97 in 4.0 mi ENE 23.0 mph 34.5 mph N/A Rain , Thunderstorm Light Rain
5:34 AM 68.0 °F - 66.2 °F 94% 29.98 in 8.0 mi ENE 23.0 mph 34.5 mph N/A Rain , Thunderstorm Light Thunderstorms and Rain
5:39 AM 68.0 °F - 64.4 °F 88% 29.98 in 10.0 mi ENE 24.2 mph 33.4 mph N/A Rain , Thunderstorm Light Thunderstorms and Rain
5:46 AM 68.0 °F - 66.2 °F 94% 29.99 in 10.0 mi ENE 24.2 mph 29.9 mph N/A Thunderstorm Thunderstorm
5:58 AM 68.0 °F - 64.6 °F 89% 29.96 in 10.0 mi ENE 20.7 mph 31.1 mph 0.22 in Thunderstorm Thunderstorm
6:00 AM 68.0 °F - 64.4 °F 88% 30.01 in 10.0 mi ENE 18.4 mph 26.5 mph N/A Rain , Thunderstorm Light Thunderstorms and Rain
6:10 AM 68.0 °F - 64.4 °F 88% 30.02 in 8.0 mi North - - N/A Thunderstorm Thunderstorm
6:15 AM 68.0 °F - 64.4 °F 88% - - North - - N/A Thunderstorm Thunderstorm
6:18 AM 68.0 °F - 64.4 °F 88% - - North - - N/A Thunderstorm Overcast
6:58 AM - - - N/A% - - North - - N/A   Overcast
7:58 AM 68.2 °F - 64.2 °F 87% 29.97 in 10.0 mi ENE 19.6 mph 25.3 mph N/A   Overcast
8:07 AM 68.0 °F - 64.4 °F 88% 29.99 in 10.0 mi ENE 24.2 mph - N/A Rain Light Rain
8:34 AM 68.0 °F - 64.4 °F 88% 30.02 in 10.0 mi East 18.4 mph - N/A   Overcast
8:51 AM 68.0 °F - 64.4 °F 88% 30.03 in 10.0 mi East 16.1 mph - N/A Rain Light Rain
8:58 AM 68.4 °F - 64.0 °F 86% 29.99 in 10.0 mi ESE 12.7 mph - 0.03 in Rain Light Rain
8:59 AM 68.0 °F - 64.4 °F 88% 30.03 in 9.0 mi SE 12.7 mph - N/A Rain Light Rain
9:00 AM 68.0 °F - 64.4 °F 88% 30.03 in 9.0 mi SE 13.8 mph - N/A   Overcast
9:40 AM 68.0 °F - 64.4 °F 88% 30.04 in 10.0 mi SE 18.4 mph - N/A   Mostly Cloudy
9:45 AM 68.0 °F - 64.4 °F 88% 30.04 in 10.0 mi SE 17.3 mph - N/A   Mostly Cloudy
9:58 AM 68.0 °F - 64.4 °F 88% 30.01 in 10.0 mi SE 17.3 mph - 0.02 in Thunderstorm Mostly Cloudy
10:08 AM 68.0 °F - 64.4 °F 88% 30.05 in 10.0 mi SE 15.0 mph - N/A Thunderstorm Overcast
10:13 AM 68.0 °F - 66.2 °F 94% 30.06 in 10.0 mi SE 10.4 mph - N/A Thunderstorm Overcast
10:33 AM 68.0 °F - 66.2 °F 94% 30.06 in 10.0 mi SE 15.0 mph - N/A   Mostly Cloudy
10:53 AM 68.0 °F - 66.2 °F 94% 30.07 in 10.0 mi Variable 3.5 mph - N/A   Mostly Cloudy
10:58 AM 68.4 °F - 66.2 °F 93% 30.05 in 10.0 mi Variable 1.2 mph - 0.01 in   Mostly Cloudy
11:33 AM 69.8 °F - 66.2 °F 88% 30.08 in 10.0 mi East 4.6 mph - N/A   Overcast
11:53 AM 69.8 °F - 66.2 °F 88% 30.06 in 10.0 mi East 11.5 mph - N/A   Mostly Cloudy
11:58 AM 69.6 °F - 66.2 °F 89% 30.03 in 10.0 mi East 12.7 mph - N/A   Mostly Cloudy
12:58 PM 71.1 °F - 65.5 °F 82% 30.01 in 10.0 mi North 3.5 mph - N/A   Partly Cloudy
1:58 PM 73.8 °F - 66.0 °F 77% 29.99 in 10.0 mi NW 8.1 mph - N/A   Overcast
2:58 PM 76.3 °F - 66.0 °F 70% 29.99 in 10.0 mi East 6.9 mph - N/A   Mostly Cloudy
3:58 PM 77.5 °F - 64.6 °F 64% 29.96 in 3.0 mi SSE 6.9 mph - N/A   Haze
4:03 PM 77.0 °F - 64.4 °F 65% 30.00 in 2.5 mi Variable 6.9 mph - N/A   Haze
4:13 PM 77.0 °F - 64.4 °F 65% 30.00 in 3.0 mi SE 5.8 mph - N/A   Haze
4:18 PM 77.0 °F - 64.4 °F 65% 30.00 in 2.5 mi SSE 9.2 mph - N/A   Haze
4:23 PM 78.8 °F - 64.4 °F 61% 29.99 in 3.0 mi South 11.5 mph - N/A   Haze
4:58 PM 79.0 °F - 64.4 °F 61% 29.95 in 10.0 mi SE 10.4 mph - N/A   Partly Cloudy
5:58 PM 79.5 °F - 67.3 °F 66% 29.94 in 10.0 mi ESE 13.8 mph - N/A   Partly Cloudy
6:58 PM 77.4 °F - 66.9 °F 70% 29.98 in 10.0 mi ESE 17.3 mph - N/A   Clear
7:58 PM 75.6 °F - 66.4 °F 73% 29.96 in 10.0 mi ESE 18.4 mph - N/A   Clear
8:58 PM 72.9 °F - 65.3 °F 77% 29.98 in 10.0 mi ESE 17.3 mph 24.2 mph N/A   Clear
9:58 PM 71.1 °F - 66.0 °F 84% 30.01 in 10.0 mi ESE 11.5 mph - N/A   Clear
10:58 PM 70.0 °F - 66.2 °F 88% 30.04 in 10.0 mi SE 5.8 mph - N/A   Clear
11:58 PM 69.1 °F - 66.0 °F 90% 30.04 in 10.0 mi ESE 9.2 mph - N/A   Clear